Tracking 33744 objects as of 12-Apr-2026
HD Live streaming from Space Station
objects crossing your sky now

STARLINK-37241

Track STARLINK-37241 now!
10-day predictions
STARLINK-37241 is classified as:


NORAD ID: 68528
Int'l Code: 2026-068W
Perigee: 334.4 km
Apogee: 335.7 km
Inclination: 53.2 °
Period: 91.1 minutes
Semi major axis: 6706 km
RCS: Unknown
Launch date: March 30, 2026
Source: United States (US)
Launch site: AIR FORCE EASTERN TEST RANGE (AFETR)
Your satellite tracking list
Your tracking list is empty




NASA's NSSDC Master Catalog

Two Line Element Set (TLE):
1 68528U 26068W   26102.50001156 -.00048356  00000-0 -24256-3 0  9990
2 68528  53.1593 339.6981 0000933  98.2620  47.2440 15.80896563  3249
Source of the keplerian elements: AFSPC